When you browse on this site, cookies collect data to enhance your experience and personalize the content and advertising you see.
Visit our Privacy Policy to learn more. By continuing to use the site, you agree to this use of cookies and data.
  • In France
  • List of Countries
  • For 7 days
  • Water Temperature
  • Weather Map
  • Weather Widgets
  • user-avatar
    Login

    Hourly Weather Garoue

    Today, 18 August, Sunday

    Time Temperature Precipitation Wind Pressure Humidity
    00:00 +27°C° 0 mm 10 mps 717 mmHg 57%
    01:00 +26°C° 0 mm 11 mps 717 mmHg 60%
    02:00 +24°C° 0 mm 12 mps 717 mmHg 64%
    03:00 +24°C° 0 mm 12 mps 716 mmHg 69%
    04:00 +23°C° 0 mm 12 mps 717 mmHg 68%
    05:00 +23°C° 0 mm 11 mps 718 mmHg 67%
    06:00 +23°C° 0 mm 10 mps 718 mmHg 67%
    07:00 +26°C° 0 mm 11 mps 719 mmHg 60%
    08:00 +28°C° 0 mm 12 mps 719 mmHg 53%
    09:00 +31°C° 0 mm 12 mps 720 mmHg 47%
    10:00 +33°C° 0 mm 12 mps 719 mmHg 42%
    11:00 +34°C° 0 mm 12 mps 719 mmHg 38%
    12:00 +37°C° 0 mm 11 mps 718 mmHg 34%
    13:00 +37°C° 0 mm 11 mps 718 mmHg 33%
    14:00 +38°C° 0 mm 11 mps 717 mmHg 32%
    15:00 +38°C° 0 mm 10 mps 716 mmHg 30%
    16:00 +37°C° 0 mm 9 mps 716 mmHg 32%
    17:00 +35°C° 0 mm 8 mps 716 mmHg 33%
    18:00 +35°C° 0 mm 7 mps 716 mmHg 34%
    19:00 +34°C° 0 mm 7 mps 717 mmHg 36%
    20:00 +33°C° 0 mm 7 mps 717 mmHg 37%
    21:00 +32°C° 0 mm 7 mps 718 mmHg 39%
    22:00 +32°C° 0 mm 7 mps 718 mmHg 41%
    23:00 +31°C° 0 mm 8 mps 718 mmHg 42%

    Tomorrow, 19 August, Monday

    Time Temperature Precipitation Wind Pressure Humidity
    00:00 +31°C° 0 mm 8 mps 718 mmHg 44%
    01:00 +29°C° 0 mm 9 mps 718 mmHg 48%
    02:00 +27°C° 0 mm 9 mps 717 mmHg 53%
    03:00 +26°C° 0 mm 10 mps 717 mmHg 58%
    04:00 +26°C° 0 mm 10 mps 718 mmHg 57%
    05:00 +24°C° 0 mm 10 mps 718 mmHg 57%
    06:00 +24°C° 0 mm 10 mps 719 mmHg 56%
    07:00 +27°C° 0 mm 11 mps 719 mmHg 51%
    08:00 +28°C° 0 mm 11 mps 720 mmHg 45%
    09:00 +31°C° 0 mm 12 mps 720 mmHg 40%
    10:00 +33°C° 0 mm 12 mps 720 mmHg 36%
    11:00 +34°C° 0 mm 11 mps 719 mmHg 32%
    12:00 +37°C° 0 mm 11 mps 718 mmHg 28%
    13:00 +38°C° 0 mm 11 mps 718 mmHg 27%
    14:00 +38°C° 0 mm 10 mps 717 mmHg 27%
    15:00 +39°C° 0 mm 10 mps 716 mmHg 26%
    16:00 +38°C° 0 mm 9 mps 716 mmHg 28%
    17:00 +37°C° 0 mm 8 mps 716 mmHg 29%
    18:00 +35°C° 0 mm 6 mps 716 mmHg 31%
    19:00 +34°C° 0 mm 6 mps 717 mmHg 33%
    20:00 +33°C° 0 mm 6 mps 717 mmHg 36%
    21:00 +32°C° 0 mm 6 mps 718 mmHg 38%
    22:00 +30°C° 0 mm 6 mps 718 mmHg 39%
    23:00 +29°C° 0 mm 7 mps 718 mmHg 40%

    Day after tomorrow, 20 August, Tuesday

    Time Temperature Precipitation Wind Pressure Humidity
    00:00 +29°C° 0 mm 8 mps 717 mmHg 42%
    01:00 +27°C° 0 mm 9 mps 717 mmHg 49%
    02:00 +26°C° 0 mm 10 mps 717 mmHg 57%
    03:00 +24°C° 0 mm 11 mps 717 mmHg 65%
    04:00 +24°C° 0 mm 10 mps 717 mmHg 67%
    05:00 +23°C° 0 mm 10 mps 718 mmHg 68%
    06:00 +23°C° 0 mm 9 mps 718 mmHg 69%
    07:00 +26°C° 0 mm 10 mps 719 mmHg 61%
    08:00 +28°C° 0 mm 11 mps 720 mmHg 53%
    09:00 +31°C° 0 mm 12 mps 720 mmHg 45%
    10:00 +33°C° 0 mm 11 mps 720 mmHg 40%
    11:00 +34°C° 0 mm 11 mps 719 mmHg 36%
    12:00 +37°C° 0 mm 11 mps 718 mmHg 31%
    13:00 +38°C° 0 mm 10 mps 718 mmHg 30%
    14:00 +38°C° 0 mm 10 mps 717 mmHg 29%
    15:00 +39°C° 0 mm 10 mps 716 mmHg 27%
    16:00 +38°C° 0 mm 9 mps 716 mmHg 29%
    17:00 +37°C° 0 mm 8 mps 716 mmHg 30%
    18:00 +35°C° 0 mm 7 mps 716 mmHg 31%
    19:00 +34°C° 0 mm 6 mps 717 mmHg 33%
    20:00 +33°C° 0 mm 6 mps 717 mmHg 35%
    21:00 +32°C° 0 mm 6 mps 718 mmHg 37%
    22:00 +30°C° 0 mm 7 mps 718 mmHg 40%
    23:00 +29°C° 0 mm 7 mps 718 mmHg 44%

    21 August, Wednesday

    Time Temperature Precipitation Wind Pressure Humidity
    00:00 +28°C° 0 mm 8 mps 718 mmHg 48%
    01:00 +28°C° 0 mm 9 mps 717 mmHg 52%
    02:00 +27°C° 0 mm 9 mps 717 mmHg 57%
    03:00 +26°C° 0 mm 10 mps 717 mmHg 61%
    04:00 +26°C° 0 mm 10 mps 717 mmHg 63%
    05:00 +26°C° 0 mm 10 mps 718 mmHg 66%
    06:00 +24°C° 0 mm 10 mps 718 mmHg 68%
    07:00 +27°C° 0 mm 10 mps 719 mmHg 61%
    08:00 +29°C° 0 mm 11 mps 719 mmHg 54%
    09:00 +32°C° 0 mm 12 mps 720 mmHg 47%
    10:00 +34°C° 0 mm 11 mps 719 mmHg 42%
    11:00 +36°C° 0 mm 11 mps 719 mmHg 37%
    12:00 +38°C° 0 mm 11 mps 718 mmHg 32%
    13:00 +39°C° 0 mm 10 mps 718 mmHg 30%
    14:00 +39°C° 0 mm 10 mps 717 mmHg 29%
    15:00 +40°C° 0 mm 10 mps 716 mmHg 27%
    16:00 +39°C° 0 mm 9 mps 716 mmHg 28%
    17:00 +38°C° 0 mm 8 mps 716 mmHg 29%
    18:00 +37°C° 0 mm 8 mps 716 mmHg 31%
    19:00 +35°C° 0 mm 7 mps 717 mmHg 32%
    20:00 +34°C° 0 mm 7 mps 717 mmHg 33%
    21:00 +33°C° 0 mm 7 mps 718 mmHg 35%
    22:00 +33°C° 0 mm 7 mps 718 mmHg 38%
    23:00 +32°C° 0 mm 8 mps 718 mmHg 41%

    22 August, Thursday

    Time Temperature Precipitation Wind Pressure Humidity
    00:00 +31°C° 0 mm 8 mps 717 mmHg 43%
    01:00 +29°C° 0 mm 9 mps 717 mmHg 48%
    02:00 +29°C° 0 mm 10 mps 717 mmHg 53%
    03:00 +28°C° 0 mm 11 mps 717 mmHg 58%
    04:00 +27°C° 0 mm 10 mps 717 mmHg 60%
    05:00 +27°C° 0 mm 10 mps 718 mmHg 63%
    06:00 +26°C° 0 mm 9 mps 718 mmHg 66%
    07:00 +28°C° 0 mm 10 mps 719 mmHg 60%
    08:00 +29°C° 0 mm 11 mps 719 mmHg 54%
    09:00 +32°C° 0 mm 12 mps 720 mmHg 48%
    10:00 +33°C° 0 mm 12 mps 719 mmHg 43%
    11:00 +36°C° 0 mm 12 mps 718 mmHg 38%
    12:00 +38°C° 0 mm 12 mps 718 mmHg 33%
    13:00 +38°C° 0 mm 12 mps 717 mmHg 32%
    14:00 +39°C° 0 mm 11 mps 716 mmHg 31%
    15:00 +39°C° 0 mm 11 mps 716 mmHg 30%
    16:00 +38°C° 0 mm 10 mps 716 mmHg 32%
    17:00 +37°C° 0 mm 9 mps 716 mmHg 34%
    18:00 +35°C° 0 mm 8 mps 716 mmHg 36%
    19:00 +34°C° 0 mm 7 mps 717 mmHg 38%
    20:00 +33°C° 0 mm 7 mps 717 mmHg 40%
    21:00 +32°C° 0 mm 6 mps 717 mmHg 42%
    22:00 +32°C° 0 mm 6 mps 717 mmHg 43%
    23:00 +32°C° 0 mm 7 mps 717 mmHg 45%

    23 August, Friday

    Time Temperature Precipitation Wind Pressure Humidity
    00:00 +31°C° 0 mm 8 mps 717 mmHg 47%
    01:00 +29°C° 0 mm 8 mps 717 mmHg 50%
    02:00 +29°C° 0 mm 9 mps 717 mmHg 54%
    03:00 +28°C° 0 mm 10 mps 717 mmHg 58%
    04:00 +27°C° 0 mm 10 mps 718 mmHg 62%
    05:00 +26°C° 0 mm 10 mps 718 mmHg 67%
    06:00 +26°C° 0 mm 10 mps 719 mmHg 72%
    07:00 +27°C° 0 mm 10 mps 719 mmHg 65%
    08:00 +29°C° 0 mm 11 mps 719 mmHg 57%
    09:00 +32°C° 0 mm 12 mps 720 mmHg 50%
    10:00 +33°C° 0 mm 12 mps 719 mmHg 46%
    11:00 +34°C° 0 mm 12 mps 719 mmHg 42%
    12:00 +36°C° 0 mm 12 mps 718 mmHg 38%
    13:00 +37°C° 0 mm 12 mps 718 mmHg 36%
    14:00 +37°C° 0 mm 12 mps 717 mmHg 35%
    15:00 +38°C° 0 mm 11 mps 716 mmHg 33%
    16:00 +37°C° 0 mm 10 mps 717 mmHg 36%
    17:00 +36°C° 0 mm 10 mps 717 mmHg 38%
    18:00 +34°C° 0 mm 9 mps 717 mmHg 41%
    19:00 +33°C° 0 mm 8 mps 717 mmHg 43%
    20:00 +32°C° 0 mm 7 mps 718 mmHg 45%
    21:00 +30°C° 0 mm 6 mps 718 mmHg 47%
    22:00 +30°C° 0 mm 7 mps 718 mmHg 50%
    23:00 +29°C° 0 mm 7 mps 718 mmHg 52%
    Show more